Darlington, SC

11:47 PM EDT on July 27, 2017 (GMT -0400)
Darlington County Jetport

Weather History for KUDG - March, 2012

Change the Weather History Date:

Saturday, March 3, 2012

  Actual Average (KFLO) Record (KFLO)
Temperature  
Mean Temperature 62 °F -  
Max Temperature 69 °F 66 °F 91 °F (1976)
Min Temperature 55 °F 43 °F 11 °F (1980)
Degree Days  
Heating Degree Days 3    
Growing Degree Days 12 (Base 50)    
Moisture  
Dew Point 60 °F    
Average Humidity 92    
Maximum Humidity 100    
Minimum Humidity 73    
Precipitation  
Precipitation 0.44 in - - ()
Sea Level Pressure  
Sea Level Pressure 29.72 in    
Wind  
Wind Speed 13 mph (SSW)    
Max Wind Speed 21 mph    
Max Gust Speed 41 mph    
Visibility 10 miles    
Events Thunderstorm    
Averages and records for this station are not official NWS values.
T = Trace of Precipitation, MM = Missing Value Source: NWS Daily Summary

Daily Weather History Graph

Daily Weather History Graph

Search for Another Location

Airport or City:

Trip Planner

Search our weather history database for the weather conditions in past years. The results will help you decide how hot, cold, wet, or windy it might be!

Date:

Astronomy

Mar. 03, 2012 Rise Set
Actual Time 6:45 AM EST 6:17 PM EST
Civil Twilight 6:20 AM EST 6:42 PM EST
Nautical Twilight 5:51 AM EST 7:12 PM EST
Astronomical Twilight 5:22 AM EST 7:41 PM EST
Moon 1:36 PM EST (3/3) 3:10 AM EST (3/3)
Length of Visible Light 12h 22m
Length of Day
11h 32m
Waxing Gibbous, 75% of the Moon is Illuminated
Mar 3
Waxing Gibbous
Mar 8
Full
Mar 14
Last Quarter
Mar 22
New
Mar 30
First Quarter

Hourly Weather History & Observations

Time (EST) Temp. Dew Point Humidity Pressure Visibility Wind Dir Wind Speed Gust Speed Precip Events Conditions
12:15 AM 68.0 °F 62.6 °F 83% 29.73 in 10.0 mi SSW 13.8 mph 21.9 mph N/A   Clear
12:35 AM 69.8 °F 62.6 °F 78% 29.74 in 10.0 mi SSW 20.7 mph 24.2 mph N/A   Scattered Clouds
12:55 AM 69.8 °F 60.8 °F 73% 29.73 in 10.0 mi South 18.4 mph - N/A   Scattered Clouds
1:15 AM 68.0 °F 60.8 °F 78% 29.73 in 10.0 mi SSW 19.6 mph 25.3 mph N/A   Partly Cloudy
1:35 AM 68.0 °F 62.6 °F 83% 29.71 in 10.0 mi SSW 16.1 mph 21.9 mph N/A   Partly Cloudy
1:55 AM 68.0 °F 62.6 °F 83% 29.71 in 10.0 mi SSW 13.8 mph - N/A   Scattered Clouds
2:15 AM 66.2 °F 62.6 °F 88% 29.72 in 10.0 mi SSW 11.5 mph - N/A   Scattered Clouds
2:35 AM 68.0 °F 62.6 °F 83% 29.69 in 10.0 mi SSW 11.5 mph - N/A   Mostly Cloudy
2:55 AM 68.0 °F 62.6 °F 83% 29.69 in 10.0 mi SSW 17.3 mph 23.0 mph N/A   Overcast
3:15 AM 68.0 °F 62.6 °F 83% 29.68 in 10.0 mi SSW 17.3 mph 24.2 mph N/A   Overcast
3:35 AM 69.8 °F 62.6 °F 78% 29.67 in 10.0 mi SSW 16.1 mph 21.9 mph N/A   Overcast
3:55 AM 68.0 °F 62.6 °F 83% 29.68 in 10.0 mi SSW 16.1 mph 25.3 mph N/A   Overcast
4:15 AM 66.2 °F 62.6 °F 88% 29.68 in 10.0 mi SSW 13.8 mph 21.9 mph N/A   Overcast
4:35 AM 66.2 °F 62.6 °F 88% 29.67 in 10.0 mi SSW 17.3 mph - N/A   Mostly Cloudy
4:55 AM 68.0 °F 62.6 °F 83% 29.68 in 10.0 mi SSW 13.8 mph 20.7 mph N/A   Mostly Cloudy
5:15 AM 68.0 °F 64.4 °F 88% 29.68 in 10.0 mi SSW 12.7 mph - N/A   Overcast
5:35 AM 68.0 °F 64.4 °F 88% 29.69 in 10.0 mi SSW 13.8 mph 21.9 mph N/A   Overcast
5:55 AM 68.0 °F 64.4 °F 88% 29.69 in 10.0 mi SSW 15.0 mph 24.2 mph N/A   Mostly Cloudy
6:15 AM 68.0 °F 64.4 °F 88% 29.69 in 10.0 mi SSW 16.1 mph - N/A   Mostly Cloudy
6:35 AM 64.4 °F 60.8 °F 88% 29.76 in 5.0 mi West 16.1 mph 41.4 mph 0.19 in Thunderstorm Thunderstorm
6:55 AM 60.8 °F 59.0 °F 94% 29.73 in 10.0 mi SW 8.1 mph - 0.22 in   Overcast
7:15 AM 60.8 °F 60.8 °F 100% 29.73 in 10.0 mi SSW 6.9 mph - N/A   Overcast
7:35 AM 60.8 °F 59.0 °F 94% 29.74 in 10.0 mi SSW 10.4 mph - N/A   Overcast
8:15 AM 62.6 °F 60.8 °F 94% 29.74 in 10.0 mi SSW 9.2 mph - N/A   Overcast
8:55 AM 62.6 °F 60.8 °F 94% 29.75 in 10.0 mi SSW 11.5 mph - N/A   Overcast
10:35 AM 62.6 °F 60.8 °F 94% 29.73 in 10.0 mi SSW 6.9 mph - N/A   Overcast
10:55 AM 62.6 °F 62.6 °F 100% 29.73 in 10.0 mi South 9.2 mph - N/A   Overcast
11:15 AM 62.6 °F 60.8 °F 94% 29.73 in 10.0 mi SSW 9.2 mph - N/A   Mostly Cloudy
11:35 AM 62.6 °F 62.6 °F 100% 29.75 in 10.0 mi SW 9.2 mph - N/A   Mostly Cloudy
12:15 PM 64.4 °F 62.6 °F 94% 29.74 in 10.0 mi South 8.1 mph - N/A   Mostly Cloudy
12:35 PM 64.4 °F 62.6 °F 94% 29.73 in 10.0 mi South 10.4 mph - N/A   Overcast
12:55 PM 64.4 °F 62.6 °F 94% 29.73 in 10.0 mi South 12.7 mph - N/A   Overcast
1:15 PM 64.4 °F 64.4 °F 100% 29.70 in 10.0 mi South 12.7 mph - N/A   Mostly Cloudy
1:35 PM 62.6 °F 62.6 °F 100% 29.68 in 10.0 mi SSE 15.0 mph 21.9 mph N/A   Overcast
1:55 PM 62.6 °F 62.6 °F 100% 29.70 in 10.0 mi SSW 10.4 mph 16.1 mph N/A   Overcast
2:15 PM 62.6 °F 62.6 °F 100% 29.72 in 10.0 mi SSW 12.7 mph 16.1 mph N/A   Overcast
2:35 PM 62.6 °F 60.8 °F 94% 29.70 in 10.0 mi South 10.4 mph - N/A   Overcast
2:55 PM 62.6 °F 60.8 °F 94% 29.72 in 10.0 mi South 11.5 mph - N/A   Overcast
3:15 PM 62.6 °F 62.6 °F 100% 29.71 in 10.0 mi South 11.5 mph - N/A   Mostly Cloudy
3:35 PM 62.6 °F 60.8 °F 94% 29.74 in 10.0 mi SSW 11.5 mph - N/A   Overcast
3:55 PM 62.6 °F 60.8 °F 94% 29.76 in 10.0 mi SSW 13.8 mph 24.2 mph N/A   Overcast
4:15 PM 62.6 °F 60.8 °F 94% 29.74 in 10.0 mi South 12.7 mph 20.7 mph N/A   Overcast
4:35 PM 62.6 °F 59.0 °F 88% 29.74 in 10.0 mi SSW 11.5 mph - N/A   Overcast
4:55 PM 60.8 °F 59.0 °F 94% 29.72 in 10.0 mi South 11.5 mph - N/A   Overcast
5:15 PM 60.8 °F 59.0 °F 94% 29.74 in 10.0 mi SW 10.4 mph - N/A   Overcast
7:55 PM 57.2 °F 55.4 °F 94% 29.75 in 10.0 mi North 4.6 mph - N/A   Overcast
8:15 PM 57.2 °F 55.4 °F 94% 29.74 in 10.0 mi NNW 4.6 mph - N/A   Mostly Cloudy
8:35 PM 57.2 °F 55.4 °F 94% 29.74 in 10.0 mi Calm Calm - N/A   Mostly Cloudy
8:55 PM 57.2 °F 55.4 °F 94% 29.75 in 10.0 mi Calm Calm - 0.01 in   Overcast
9:15 PM 57.2 °F 57.2 °F 100% 29.77 in 10.0 mi West 3.5 mph - 0.01 in   Overcast
9:35 PM 57.2 °F 57.2 °F 100% 29.73 in 9.0 mi North 5.8 mph - 0.02 in   Mostly Cloudy
9:55 PM 57.2 °F 55.4 °F 94% 29.76 in 10.0 mi NNW 3.5 mph - 0.03 in   Overcast
10:15 PM 55.4 °F 55.4 °F 100% 29.75 in 10.0 mi North 5.8 mph - 0.02 in   Overcast
10:35 PM 55.4 °F 53.6 °F 94% 29.75 in 8.0 mi Calm Calm - 0.03 in   Overcast
10:55 PM 55.4 °F 55.4 °F 100% 29.76 in 10.0 mi NNW 4.6 mph - 0.06 in   Overcast
11:15 PM 55.4 °F 55.4 °F 100% 29.75 in 8.0 mi North 4.6 mph - 0.05 in   Overcast
11:35 PM 55.4 °F 53.6 °F 94% 29.75 in 10.0 mi NNE 3.5 mph - 0.08 in   Overcast
11:55 PM 55.4 °F 51.8 °F 88% 29.73 in 8.0 mi NE 3.5 mph - 0.12 in   Overcast